Abilene Dyess, TX

3:10 AM CDT on May 27, 2017 (GMT -0500)
Dyess Air Force Base

Weather History for KDYS - February, 2014

Change the Weather History Date:

Monday, February 17, 2014

  Actual Average Record
Temperature  
Mean Temperature 54 °F -  
Max Temperature 69 °F 59 °F 86 °F (2011)
Min Temperature 39 °F 39 °F 28 °F (2001)
Degree Days  
Heating Degree Days 11    
Growing Degree Days 4 (Base 50)    
Moisture  
Dew Point 29 °F    
Average Humidity 37    
Maximum Humidity 67    
Minimum Humidity 13    
Precipitation  
Precipitation 0.00 in - - ()
Sea Level Pressure  
Sea Level Pressure 30.02 in    
Wind  
Wind Speed 13 mph (North)    
Max Wind Speed 25 mph    
Max Gust Speed 34 mph    
Visibility 10 miles    
Events      
Averages and records for this station are not official NWS values.
T = Trace of Precipitation, MM = Missing Value Source: NWS Daily Summary

Daily Weather History Graph

Daily Weather History Graph

Search for Another Location

Airport or City:

Trip Planner

Search our weather history database for the weather conditions in past years. The results will help you decide how hot, cold, wet, or windy it might be!

Date:

Astronomy

Feb. 17, 2014 Rise Set
Actual Time 7:20 AM CST 6:27 PM CST
Civil Twilight 6:55 AM CST 6:52 PM CST
Nautical Twilight 6:26 AM CST 7:20 PM CST
Astronomical Twilight 5:57 AM CST 7:49 PM CST
Moon 9:10 PM CST (2/17) 8:32 AM CST (2/17)
Length of Visible Light 11h 57m
Length of Day
11h 07m
Waning Gibbous, 93% of the Moon is Illuminated
Feb 17
Waning Gibbous
Feb 22
Last Quarter
Mar 1
New
Mar 8
First Quarter
Mar 16
Full

Hourly Weather History & Observations

Time (CST) Temp. Windchill Dew Point Humidity Pressure Visibility Wind Dir Wind Speed Gust Speed Precip Events Conditions
12:58 AM 64.2 °F - 45.5 °F 51% 29.78 in 10.0 mi SSW 17.3 mph - N/A   Clear
1:58 AM 64.2 °F - 50.0 °F 60% 29.79 in 10.0 mi SW 15.0 mph - N/A   Clear
2:58 AM 64.2 °F - 50.7 °F 61% 29.77 in 10.0 mi SW 16.1 mph - N/A   Clear
3:58 AM 64.8 °F - 50.7 °F 60% 29.78 in 10.0 mi WSW 16.1 mph - N/A   Clear
4:58 AM 61.5 °F - 50.5 °F 67% 29.83 in 10.0 mi WSW 10.4 mph - N/A   Clear
5:58 AM 61.2 °F - 50.2 °F 67% 29.86 in 10.0 mi West 9.2 mph - N/A   Clear
6:58 AM 59.7 °F - 46.4 °F 61% 29.96 in 10.0 mi NW 9.2 mph - N/A   Partly Cloudy
7:58 AM 59.9 °F - 30.7 °F 33% 30.06 in 10.0 mi NNE 16.1 mph - N/A   Clear
8:58 AM 59.4 °F - 28.2 °F 31% 30.12 in 10.0 mi NNE 13.8 mph 24.2 mph N/A   Clear
9:58 AM 61.7 °F - 24.1 °F 24% 30.14 in 10.0 mi NNE 25.3 mph 34.5 mph N/A   Clear
10:58 AM 62.4 °F - 20.7 °F 20% 30.16 in 10.0 mi NNE 25.3 mph 33.4 mph N/A   Clear
11:58 AM 63.3 °F - 18.0 °F 17% 30.14 in 10.0 mi NE 16.1 mph - N/A   Clear
12:58 PM 66.7 °F - 16.7 °F 15% 30.10 in 10.0 mi NNE 16.1 mph 23.0 mph N/A   Clear
1:58 PM 68.7 °F - 16.3 °F 13% 30.07 in 10.0 mi NNE 13.8 mph 21.9 mph N/A   Clear
2:58 PM 69.3 °F - 17.1 °F 14% 30.06 in 10.0 mi NE 11.5 mph - N/A   Clear
3:58 PM 69.1 °F - 18.3 °F 14% 30.06 in 10.0 mi ENE 9.2 mph - N/A   Clear
4:58 PM 67.8 °F - 17.4 °F 15% 30.06 in 10.0 mi ENE 4.6 mph - N/A   Clear
5:58 PM 64.6 °F - 16.9 °F 16% 30.07 in 10.0 mi ENE 5.8 mph - N/A   Clear
6:58 PM 59.9 °F - 17.8 °F 19% 30.10 in 10.0 mi East 3.5 mph - N/A   Clear
7:58 PM 50.9 °F - 21.4 °F 31% 30.13 in 10.0 mi SSE 1.2 mph - N/A   Clear
8:58 PM 46.2 °F 45.0 °F 20.8 °F 37% 30.14 in 10.0 mi SW 3.5 mph - N/A   Clear
9:58 PM 44.2 °F 42.7 °F 21.7 °F 41% 30.14 in 10.0 mi SW 3.5 mph - N/A   Clear
10:58 PM 39.9 °F - 25.2 °F 56% 30.12 in 10.0 mi SSW 2.3 mph - N/A   Clear
11:58 PM 39.7 °F 37.6 °F 27.0 °F 60% 30.10 in 10.0 mi SSW 3.5 mph - N/A   Clear